TimeCST,TemperatureF,Dew PointF,Humidity,Sea Level PressureIn,VisibilityMPH,Wind Direction,Wind SpeedMPH,Gust SpeedMPH,PrecipitationIn,Events,Conditions,WindDirDegrees,DateUTC
12:55 AM,6.1,3.9,91,30.06,10.0,Calm,Calm,-,N/A,,Clear,0,2013-02-26 06:55:00
1:55 AM,10.0,8.1,92,30.06,10.0,Calm,Calm,-,N/A,,Clear,0,2013-02-26 07:55:00
2:55 AM,8.1,3.9,83,30.08,8.0,Calm,Calm,-,N/A,,Clear,0,2013-02-26 08:55:00
3:55 AM,1.0,-0.9,91,30.08,9.0,Calm,Calm,-,N/A,,Clear,0,2013-02-26 09:55:00
4:55 AM,5.0,3.9,95,30.09,6.0,Calm,Calm,-,N/A,,Clear,0,2013-02-26 10:55:00
5:55 AM,5.0,1.9,87,30.11,7.0,Calm,Calm,-,N/A,,Clear,0,2013-02-26 11:55:00
6:55 AM,-0.0,-4.0,83,30.14,6.0,Calm,Calm,-,N/A,,Clear,0,2013-02-26 12:55:00
7:55 AM,1.9,1.9,100,30.13,4.0,SE,3.5,-,N/A,,Clear,140,2013-02-26 13:55:00
8:55 AM,14.0,12.9,95,30.11,4.0,Calm,Calm,-,N/A,,Clear,0,2013-02-26 14:55:00
9:55 AM,19.9,18.0,92,30.10,8.0,Calm,Calm,-,N/A,,Clear,0,2013-02-26 15:55:00
10:55 AM,32.0,23.0,69,30.09,10.0,Calm,Calm,-,N/A,,Clear,0,2013-02-26 16:55:00
11:56 AM,35.6,19.4,52,30.02,10.0,Calm,Calm,-,N/A,,Unknown,0,2013-02-26 17:56:00
12:55 PM,41.0,19.0,41,30.08,10.0,Calm,Calm,-,N/A,,Clear,0,2013-02-26 18:55:00
1:55 PM,39.9,23.0,51,30.06,10.0,North,5.8,-,N/A,,Clear,350,2013-02-26 19:55:00
2:55 PM,41.0,19.9,43,30.07,10.0,NE,3.5,-,N/A,,Clear,40,2013-02-26 20:55:00
3:55 PM,41.0,19.0,41,30.07,10.0,NNE,3.5,-,N/A,,Clear,20,2013-02-26 21:55:00
4:55 PM,39.9,18.0,41,30.07,10.0,Calm,Calm,-,N/A,,Clear,0,2013-02-26 22:55:00
5:55 PM,30.9,19.9,64,30.09,10.0,ENE,4.6,-,N/A,,Clear,60,2013-02-26 23:55:00
6:55 PM,25.0,18.0,75,30.10,10.0,Calm,Calm,-,N/A,,Clear,0,2013-02-27 00:55:00
7:55 PM,19.9,16.0,85,30.10,10.0,Calm,Calm,-,N/A,,Clear,0,2013-02-27 01:55:00
8:55 PM,19.0,14.0,81,30.09,10.0,Calm,Calm,-,N/A,,Clear,0,2013-02-27 02:55:00
9:55 PM,19.0,14.0,81,30.08,10.0,North,3.5,-,N/A,,Clear,350,2013-02-27 03:55:00
10:55 PM,17.1,12.0,81,30.07,10.0,Calm,Calm,-,N/A,,Clear,0,2013-02-27 04:55:00
11:55 PM,12.9,10.9,92,30.08,10.0,Calm,Calm,-,N/A,,Clear,0,2013-02-27 05:55:00